FENGYUN 1C DEB

Satellite information

Favourite Embed

Satellite Type and Status

DEBRISIN ORBIT

Key statistics

Satellite FENGYUN 1C DEB at a glance.

Uptime

9715

Days in orbit

Revolutions

≈ 14.2

Per day

Orbit

SSO

Sun Synchronous Orbit

Inclination

99.0

Latest

Satellite identification and parameters

Extended collection of information and parameters for FENGYUN 1C DEB.

Object identification

Identified? True

Debris? True

Object name: FENGYUN 1C DEB

International designator: 1999-025BPR

Object number (NORAD): 31313

Object ID (CCSDS): 31313

Country: PEOPLES REPUBLIC OF CHINA (PRC)

Current information (Y/N): Y

RCS size: SMALL

Orbital parameters

Period: 101.246 minutes

Inclination: 99.0149 deg

SMA: 7195.813 km

Apoapsis: 849.789 km

Periapsis: 785.566 km

RAAN: 250.0446 deg

Eccentricy: 0.00446254

Argument of periapsis: 182.8312 deg

Mean anomaly: 177.2618 deg

Mean motion: 14.22273078 rev/day

Mean motion (dot): 0.00000966 rev/day2

B* drag term: 0.00045119323 1/REarth

Two-line elements (TLE)

Creation date: Dec. 12, 2025, 10:14 a.m.

Reference frame: TEME

Reference center: EARTH

Epoch: Dec. 12, 2025, 4:09 a.m. UTC

TLE line 0: 0 FENGYUN 1C DEB

TLE line 1: 1 31313U 99025BPR 25346.17332079 .00000966 00000-0 45119-3 0 9992

TLE line 2: 2 31313 99.0149 250.0446 0044625 182.8312 177.2618 14.22273078970545

Live tracking on map

Real-time ground track for satellite FENGYUN 1C DEB.

In-orbit conjunctions

A list of the most updated potential collisions computed for object FENGYUN 1C DEB.

Target Orbit TCA Probability of collision Miss distance Type
OSCAR 18 (WEBERSAT) SSO 2025-07-17 11:22:54 0.0001941624 330.0 (m) PAYLOAD
SL-3 R/B LEO 2024-09-10 09:21:13 0.002058542 99.0 (m) ROCKET BODY
FENGYUN 1C DEB SSO 2024-06-30 14:38:52 0.0002016978 206.0 (m) DEBRIS

Associated space launch

Chinese polar orbiting meteorological satellite

FENGYUN 1C DEB was lifted into orbit during the mission ‘Long March 4B | Feng Yun 1C’, on board a Long March 4B space rocket.

The launch took place on May 10, 1999, 1:33 a.m. from Launch Complex 7.

For more information about the launch, click the button.

Launch to space Long March 4B | Feng Yun 1C
Long March 4B | Feng Yun 1C

Agency: N/A

Status: Launch Successful

Launch date: May 10, 1999, 1:33 a.m. UTC

Rocket: Long March 4B

Launch pad: Launch Complex 7

Location: Taiyuan Satellite Launch Center, People's Republic of China

...

Latest news about this satellite

There are no fresh news available about this satellite. Check back as we update our databases every day.


Newsletter sign-up

Weekly statistics, charts and insights to help you stay on top of the space industry.